This is the latest recevied weather packets stored in our database for station/object KC4GS-13. If no packets are shown the sender has not sent any weather packets the latest 10 day(s).
| Time | Temp. | Humidity | Pressure | Rain* | Wind** | Luminosity | Snow |
|---|---|---|---|---|---|---|---|
| 1778180604 | 21.11° C | 99% | 1011.7 hPa | 0 mm | - | 282 W/m² | - |
| 1778180303 | 21.67° C | 99% | 1011.4 hPa | 0 mm | - | 239 W/m² | - |
| 1778180000 | 21.67° C | 99% | 1011.7 hPa | 0 mm | - | 134 W/m² | - |
| 1778179697 | 21.67° C | 99% | 1011.8 hPa | 0 mm | - | 125 W/m² | - |
| 1778179395 | 21.11° C | 99% | 1011.4 hPa | 0 mm | - | 212 W/m² | - |
| 1778179091 | 21.11° C | 99% | 1011.3 hPa | 0 mm | - | 948 W/m² | - |
| 1778178788 | 21.11° C | 99% | 1011.3 hPa | 0 mm | - | 226 W/m² | - |
| 1778178486 | 21.67° C | 99% | 1011.3 hPa | 0 mm | - | 317 W/m² | - |
| 1778178181 | 21.67° C | 99% | 1011.1 hPa | 0 mm | - | 489 W/m² | - |
| 1778177877 | 21.67° C | 99% | 1011.2 hPa | 0 mm | - | 337 W/m² | - |
| 1778177574 | 21.67° C | 99% | 1011 hPa | 0 mm | - | 282 W/m² | - |
| 1778177270 | 21.11° C | 99% | 1011.1 hPa | 0 mm | - | 882 W/m² | - |
| 1778176968 | 21.11° C | 99% | 1011.3 hPa | 0 mm | - | 860 W/m² | - |
| 1778176663 | 21.67° C | 99% | 1011.4 hPa | 0 mm | - | 624 W/m² | - |
| 1778176360 | 21.11° C | 99% | 1011.3 hPa | 0 mm | - | 337 W/m² | - |
| 1778176057 | 21.11° C | 99% | 1011.3 hPa | 0 mm | - | 514 W/m² | - |
| 1778175756 | 21.11° C | 99% | 1011.3 hPa | 0 mm | - | 732 W/m² | - |
| 1778175453 | 21.11° C | 99% | 1011.7 hPa | 0 mm | - | 297 W/m² | - |
| 1778175149 | 20.56° C | 99% | 1011.6 hPa | 0 mm | - | 835 W/m² | - |
| 1778174846 | 20.56° C | 99% | 1011.7 hPa | 0 mm | - | 551 W/m² | - |
| 1778174542 | 20.56° C | 99% | 1011.4 hPa | 0 mm | - | 656 W/m² | - |
| 1778174237 | 20° C | 99% | 1011.6 hPa | 0 mm | - | 466 W/m² | - |
| 1778173935 | 20° C | 99% | 1011.2 hPa | 0 mm | - | 361 W/m² | - |
| 1778173631 | 19.44° C | 99% | 1012 hPa | 0 mm | - | 94 W/m² | - |
| 1778173329 | 19.44° C | 99% | 1011.9 hPa | 0 mm | - | 40 W/m² | - |
* Rain latest hour (hover to see other rain measurements)
** Current wind speed in m/s (hover to see current wind gust speed)